Flag for U.S.A. Weather past 2 weeks in Chattanooga, Tennessee, U.S.A.

Now
78 °F

Partly sunny.


Feels Like: 80 °F
Forecast: 66 / 82 °F
Wind: 6 mph from North

Location: Lovell Field

Current Time: Sep 16, 2014 at 11:29:08 AM

Latest Report: Sep 16, 2014 at 10:55 AM


Visibility: 10 mi

Pressure: 30.12 "Hg

Humidity: 66%

Dew point: 66 °F

Location of ChattanoogaLocation

Historic Weather in Chattanooga — Graph

°F

Chattanooga temperature yesterday

Maximum temperature yesterday: 79 °F (at 5:53 PM)
Minimum temperature yesterday: 67 °F (at 5:53 AM)
Average temperature yesterday: 72 °F

Past Weeks' High & Low Weather Summary

 TemperatureHumidityPressure
High93 °F (Sep 2, 4:53 PM)94% (Sep 6, 6:53 AM)30.22 "Hg (Sep 6, 6:53 AM)
Low65 °F (Sep 14, 3:53 AM)40% (Sep 2, 4:53 PM)29.92 "Hg (Sep 2, 6:53 PM)
Average77 °F75%30.06 "Hg
* Reported Sep 1 9:53 AM — Sep 16 9:53 AM, Chattanooga, Weather by CustomWeather, © 2014

Note: Actual official high and low records may vary slightly from our data, if they occured in-between our weather recording intervals... More about our weather records

Advertising

Chattanooga weather history for previous 24 hours

 ConditionsComfort  
Time TempWeatherWind HumidityBarometerVisibility
9:53 AM
Sep 16
73 °FBroken clouds.No wind90%30.10 "Hg7 mi
8:53 AM71 °FFog.No wind93%30.09 "Hg0 mi
7:53 AM71 °FFog.No wind93%30.09 "Hg0 mi
6:53 AM71 °FFog.No wind93%30.09 "Hg0 mi
5:53 AM71 °FFog.No wind93%30.07 "Hg1 mi
4:53 AM71 °FFog.No wind93%30.08 "Hg1 mi
3:53 AM71 °FFog.No wind93%30.07 "Hg1 mi
3:01 AM71 °FFog.No wind93%30.10 "Hg1 mi
2:53 AM71 °FFog.No wind93%30.09 "Hg1 mi
1:53 AM72 °FFog.No wind93%30.11 "Hg5 mi
12:53 AM72 °FFog.No wind91%30.12 "Hg6 mi
11:53 PM
Sep 15
72 °FFog.No wind91%30.13 "Hg6 mi
10:53 PM72 °FFog.No wind91%30.11 "Hg6 mi
9:59 PM72 °FStrong thunderstorms. Fog.6 mph93%30.14 "Hg1 mi
8:53 PM74 °FMostly cloudy.6 mph85%30.11 "Hg10 mi
7:53 PM76 °FMostly cloudy.5 mph74%30.11 "Hg10 mi
7:03 PM78 °FPartly sunny.3 mph74%30.12 "Hg10 mi
6:53 PM78 °FBroken clouds.5 mph74%30.09 "Hg10 mi
5:53 PM79 °FBroken clouds.3 mph69%30.08 "Hg10 mi
4:53 PM77 °FPartly sunny.5 mph74%30.10 "Hg10 mi
3:53 PM77 °FPartly sunny.5 mph71%30.12 "Hg10 mi
2:53 PM75 °FOvercast.7 mph74%30.14 "Hg5 mi
1:53 PM74 °FOvercast.6 mph76%30.16 "Hg5 mi
12:53 PM72 °FFog.5 mph78%30.17 "Hg5 mi
11:53 AM70 °FFog.No wind84%30.19 "Hg5 mi
Weather by CustomWeather, © 2014

See weather overviewHow to use our weather pages